Weather History for Amarillo, TX

Change the Weather History Date:

Tuesday, October 11, 2011

  Actual Average Record
Temperature  
Mean Temperature 67 °F 60 °F  
Max Temperature 81 °F 73 °F 92 °F (1962)
Min Temperature 53 °F 47 °F 27 °F (2009)
Degree Days  
Heating Degree Days 0 6  
Month to date heating degree days 22 54  
Since 1 July heating degree days 41 98  
Cooling Degree Days 2 1  
Month to date cooling degree days 32 17  
Year to date cooling degree days 2211 1387  
Growing Degree Days 16 (Base 50)    
Moisture  
Dew Point 49 °F    
Average Humidity 59    
Maximum Humidity 100    
Minimum Humidity 17    
Precipitation  
Precipitation 0.00 in 0.06 in 1.07 in (1930)
Month to date precipitation 0.47 0.66  
Year to date precipitation 4.08 17.85  
Snow  
Snow 0.00 in 0.00 in T in (1986)
Month to date snowfall 0.0 0.0  
Since 1 July snowfall 0.0 T  
Since 1 September snowfall 0.0 T  
Snow Depth 0.00 in    
Sea Level Pressure  
Sea Level Pressure 29.83 in    
Wind  
Wind Speed 15 mph (SSW)    
Max Wind Speed 26 mph    
Max Gust Speed 31 mph    
Visibility 9 miles    
Events      
T = Trace of Precipitation, MM = Missing Value Source: NWS Daily Summary

Daily Weather History Graph

Daily Weather History Graph

Search for Another Location

Airport:

Trip Planner

Search our weather history database for the weather conditions in past years. The results will help you decide how hot, cold, wet, or windy it might be!

Date:

Astronomy

Oct. 11, 2011 Rise Set
Actual Time 7:49 AM CDT 7:17 PM CDT
Civil Twilight 7:24 AM CDT 7:42 PM CDT
Nautical Twilight 6:54 AM CDT 8:12 PM CDT
Astronomical Twilight 6:25 AM CDT 8:41 PM CDT
Moon 6:52 PM CDT (10/11) 7:27 AM CDT (10/11)
Length of Visible Light 12h 18m
Length of Day
11h 27m
Full, 100% of the Moon is Illuminated
Oct 11
Full
Oct 11
Full
Oct 19
Last Quarter
Oct 26
New
Nov 2
First Quarter

Hourly Weather History & Observations

Time (CDT) Temp. Dew Point Humidity Pressure Visibility Wind Dir Wind Speed Gust Speed Precip Events Conditions
12:53 AM 57.0 °F 52.0 °F 83% 29.88 in 10.0 mi South 18.4 mph - N/A   Clear
1:53 AM 55.4 °F 51.8 °F 88% 29.98 in 10.0 mi South 16.1 mph - N/A   Clear
2:53 AM 55.0 °F 52.0 °F 89% 29.86 in 10.0 mi South 15.0 mph - N/A   Clear
3:53 AM 54.0 °F 52.0 °F 93% 29.85 in 10.0 mi South 12.7 mph - N/A   Clear
4:53 AM 53.1 °F 51.1 °F 93% 29.85 in 10.0 mi South 12.7 mph - N/A   Clear
5:53 AM 53.1 °F 52.0 °F 96% 29.85 in 10.0 mi South 15.0 mph - N/A   Clear
6:08 AM 53.6 °F 51.8 °F 94% 29.95 in 10.0 mi South 15.0 mph - N/A   Scattered Clouds
6:19 AM 53.6 °F 51.8 °F 94% 29.95 in 10.0 mi SSW 16.1 mph - N/A   Mostly Cloudy
6:53 AM 55.0 °F 54.0 °F 96% 29.85 in 10.0 mi SSW 16.1 mph - N/A   Mostly Cloudy
7:36 AM 53.6 °F 53.6 °F 100% 29.94 in 9.0 mi SSW 16.1 mph - N/A   Scattered Clouds
7:53 AM 54.0 °F 53.1 °F 97% 29.84 in 8.0 mi SSW 15.0 mph - N/A   Clear
8:13 AM 53.6 °F 53.6 °F 100% 29.93 in 8.0 mi SSW 17.3 mph - N/A   Partly Cloudy
8:29 AM 55.4 °F 53.6 °F 94% 29.93 in 5.0 mi SSW 18.4 mph - N/A   Haze
8:53 AM 55.4 °F 53.6 °F 94% 29.93 in 5.0 mi SSW 19.6 mph - N/A   Haze
9:39 AM 57.2 °F 53.6 °F 88% 29.94 in 5.0 mi SSW 21.9 mph - N/A   Scattered Clouds
9:53 AM 59.0 °F 54.0 °F 83% 29.84 in 9.0 mi SSW 20.7 mph 27.6 mph N/A   Partly Cloudy
10:53 AM 64.4 °F 53.6 °F 68% 29.92 in 10.0 mi SSW 24.2 mph 28.8 mph N/A   Clear
11:53 AM 66.9 °F 53.1 °F 61% 29.81 in 10.0 mi SSW 24.2 mph 29.9 mph N/A   Clear
12:53 PM 70.0 °F 52.0 °F 53% 29.78 in 10.0 mi South 17.3 mph - N/A   Clear
1:53 PM 73.9 °F 51.1 °F 45% 29.73 in 10.0 mi SSW 17.3 mph 26.5 mph N/A   Clear
2:53 PM 77.0 °F 48.2 °F 36% 29.82 in 10.0 mi SSW 19.6 mph 26.5 mph N/A   Partly Cloudy
3:53 PM 79.0 °F 45.0 °F 30% 29.67 in 10.0 mi SSW 18.4 mph 27.6 mph N/A   Scattered Clouds
4:53 PM 80.6 °F 35.6 °F 20% 29.77 in 10.0 mi SW 17.3 mph 26.5 mph N/A   Scattered Clouds
5:53 PM 78.1 °F 33.1 °F 19% 29.63 in 10.0 mi SW 13.8 mph 25.3 mph N/A   Scattered Clouds
6:53 PM 78.1 °F 30.0 °F 17% 29.63 in 10.0 mi WSW 16.1 mph - N/A   Mostly Cloudy
7:53 PM 68.0 °F 30.2 °F 24% 29.77 in 10.0 mi WSW 4.6 mph - N/A   Partly Cloudy
8:53 PM 63.0 °F 34.0 °F 34% 29.70 in 10.0 mi SE 4.6 mph - N/A   Scattered Clouds
9:53 PM 62.1 °F 55.0 °F 78% 29.72 in 10.0 mi SSE 11.5 mph - N/A   Partly Cloudy
10:53 PM 60.1 °F 55.9 °F 86% 29.72 in 8.0 mi SE 10.4 mph - N/A   Clear
11:53 PM 57.0 °F 55.0 °F 93% 29.72 in 7.0 mi SE 9.2 mph - N/A   Clear